FW7257 Weather Reports


Display with metric or nautical units.
time (UTC)temp
F
wind
direction
speed
MPH
gust
MPH
rain 1hr
in
rain 24hr
in
rain mn
in
humidity
%
barometer
mb
20260509002342 65 0 0.0 2.0 0.00 0.00 0.00 71 1015.6
20260509001840 65 0 0.0 2.0 0.00 0.00 0.00 71 1015.6
20260509001341 65 0 0.0 2.0 0.00 0.00 0.00 71 1015.6
20260509000836 66 0 0.0 2.0 0.00 0.00 0.00 71 1015.6
20260509000340 66 234 1.0 2.0 0.00 0.00 0.00 70 1015.7
20260508235835 66 204 2.0 0.0 0.00 0.00 0.00 70 1015.6
20260508235340 66 0 0.0 1.0 0.00 0.00 0.00 70 1015.7
20260508234839 66 0 0.0 3.0 0.00 0.00 0.00 69 1015.6
20260508234338 66 0 0.0 3.0 0.00 0.00 0.00 69 1015.6
20260508233842 67 314 2.0 1.0 0.00 0.00 0.00 68 1015.5
20260508233337 67 0 0.0 1.0 0.00 0.00 0.00 69 1015.6
20260508232840 67 0 0.0 2.0 0.00 0.00 0.00 68 1015.7
20260508232341 67 0 0.0 2.0 0.00 0.00 0.00 67 1015.6
20260508231838 68 0 0.0 2.0 0.00 0.00 0.00 67 1015.5
20260508231342 68 247 0.0 2.0 0.00 0.00 0.00 65 1015.3
20260508230840 68 0 0.0 2.0 0.00 0.00 0.00 65 1015.5
20260508230336 68 0 0.0 3.0 0.00 0.00 0.00 65 1015.2
20260508225840 68 176 0.0 4.0 0.00 0.00 0.00 64 1015.3
20260508225337 68 0 0.0 4.0 0.00 0.00 0.00 64 1015.4
20260508224835 68 229 0.0 3.0 0.00 0.00 0.00 64 1015.4
20260508224336 68 240 1.0 2.0 0.00 0.00 0.00 64 1015.2
20260508223836 69 217 1.0 2.0 0.00 0.00 0.00 64 1015.2
20260508223337 69 342 0.0 2.0 0.00 0.00 0.00 63 1015.7
20260508222838 69 0 0.0 3.0 0.00 0.00 0.00 63 1015.5
20260508222338 69 0 0.0 3.0 0.00 0.00 0.00 63 1015.6
20260508221835 69 0 0.0 2.0 0.00 0.00 0.00 64 1015.4
20260508221341 69 0 0.0 2.0 0.00 0.00 0.00 63 1015.4
20260508220841 70 288 1.0 2.0 0.00 0.00 0.00 62 1015.5
20260508220343 70 0 0.0 2.0 0.00 0.00 0.00 62 1015.5
20260508215836 70 0 0.0 2.0 0.00 0.00 0.00 61 1015.5
20260508215338 70 215 1.0 3.0 0.00 0.00 0.00 61 1015.6
20260508214840 70 229 1.0 3.0 0.00 0.00 0.00 61 1015.7
20260508214336 70 216 1.0 3.0 0.00 0.00 0.00 60 1015.6
20260508213840 70 218 1.0 2.0 0.00 0.00 0.00 61 1015.5
20260508213340 70 0 0.0 2.0 0.00 0.00 0.00 61 1015.5
20260508212839 70 216 1.0 2.0 0.00 0.00 0.00 60 1015.5
20260508212341 70 0 0.0 2.0 0.00 0.00 0.00 60 1015.4
20260508211840 70 235 0.0 2.0 0.00 0.00 0.00 58 1015.5
20260508211343 70 221 0.0 2.0 0.00 0.00 0.00 58 1015.6
20260508210840 70 238 1.0 3.0 0.00 0.00 0.00 58 1015.7
20260508210338 71 240 1.0 3.0 0.00 0.00 0.00 59 1015.6
20260508205841 71 235 2.0 3.0 0.00 0.00 0.00 56 1015.5
20260508205338 71 230 0.0 2.0 0.00 0.00 0.00 56 1015.5
20260508204838 71 0 0.0 2.0 0.00 0.00 0.00 59 1015.6
20260508204340 71 236 0.0 2.0 0.00 0.00 0.00 59 1015.6
20260508203836 71 0 0.0 2.0 0.00 0.00 0.00 57 1015.7
20260508203341 71 0 0.0 4.0 0.00 0.00 0.00 58 1015.7
20260508202840 71 258 1.0 5.0 0.00 0.00 0.00 54 1015.8
20260508202336 71 0 0.0 6.0 0.00 0.00 0.00 55 1015.7
20260508201840 71 245 1.0 6.0 0.00 0.00 0.00 54 1015.7
20260508201338 71 0 0.0 4.0 0.00 0.00 0.00 55 1015.5
20260508200839 71 241 1.0 4.0 0.00 0.00 0.00 54 1015.5
20260508200339 71 250 3.0 3.0 0.00 0.00 0.00 53 1015.6
20260508195842 71 255 2.0 3.0 0.00 0.00 0.00 53 1015.7
20260508195338 72 238 0.0 3.0 0.00 0.00 0.00 52 1015.8
20260508194842 72 200 1.0 1.0 0.00 0.00 0.00 53 1016.0
20260508194341 71 0 0.0 4.0 0.00 0.00 0.00 53 1016.1
20260508193834 71 236 1.0 5.0 0.00 0.00 0.00 53 1016.0
20260508193336 71 0 0.0 5.0 0.00 0.00 0.00 53 1016.1
20260508192835 72 257 5.0 4.0 0.00 0.00 0.00 52 1016.2
20260508192340 72 0 0.0 3.0 0.00 0.00 0.00 54 1016.3
20260508191841 72 231 1.0 2.0 0.00 0.00 0.00 53 1016.2
20260508191340 72 210 0.0 4.0 0.00 0.00 0.00 53 1016.4
20260508190840 72 210 1.0 4.0 0.00 0.00 0.00 53 1016.8
20260508190342 72 38 3.0 2.0 0.00 0.00 0.00 53 1016.6
20260508185842 72 184 1.0 2.0 0.00 0.00 0.00 51 1016.7
20260508185339 72 0 0.0 4.0 0.00 0.00 0.00 54 1016.7
20260508184837 71 206 2.0 5.0 0.00 0.00 0.00 54 1016.8
20260508184339 71 245 3.0 6.0 0.00 0.00 0.00 52 1016.8
20260508183841 71 0 0.0 6.0 0.00 0.00 0.00 54 1016.8
20260508183345 71 276 1.0 4.0 0.00 0.00 0.00 56 1016.9
20260508182840 72 257 4.0 4.0 0.00 0.00 0.00 54 1016.9
20260508182340 71 0 0.0 4.0 0.00 0.00 0.00 55 1017.1
20260508181839 72 161 1.0 3.0 0.00 0.00 0.00 53 1017.1
20260508181342 71 0 0.0 3.0 0.00 0.00 0.00 48 1017.1
20260508180839 71 82 2.0 3.0 0.00 0.00 0.00 57 1017.2
20260508180343 72 186 1.0 4.0 0.00 0.00 0.00 55 1017.2
20260508175839 72 241 3.0 4.0 0.00 0.00 0.00 55 1017.2
20260508175339 72 248 1.0 2.0 0.00 0.00 0.00 56 1017.2
20260508174838 71 217 1.0 2.0 0.00 0.00 0.00 55 1017.3
20260508174336 72 195 1.0 3.0 0.00 0.00 0.00 54 1017.5
20260508173841 71 198 1.0 6.0 0.00 0.00 0.00 58 1017.6
20260508173336 71 184 0.0 6.0 0.00 0.00 0.00 56 1017.6
20260508172841 71 240 3.0 6.0 0.00 0.00 0.00 58 1017.7
20260508172340 70 231 2.0 6.0 0.00 0.00 0.00 61 1017.9
20260508171838 70 83 2.0 6.0 0.00 0.00 0.00 59 1018.0
20260508171342 70 236 1.0 7.0 0.00 0.00 0.00 64 1018.0
20260508170837 69 0 0.0 7.0 0.00 0.00 0.00 63 1018.2
20260508170336 70 171 2.0 5.0 0.00 0.00 0.00 63 1018.1
20260508165838 69 264 2.0 4.0 0.00 0.00 0.00 62 1018.1
20260508165343 69 238 2.0 7.0 0.00 0.00 0.00 61 1018.4
20260508164837 68 238 1.0 7.0 0.00 0.00 0.00 61 1018.5
20260508164336 68 94 3.0 7.0 0.00 0.00 0.00 63 1018.6
20260508163840 67 207 3.0 6.0 0.00 0.00 0.00 60 1018.5
20260508163339 67 310 2.0 6.0 0.00 0.00 0.00 65 1018.6
20260508162836 67 72 0.0 6.0 0.00 0.00 0.00 63 1018.9
20260508162337 66 248 5.0 5.0 0.00 0.00 0.00 65 1018.9
20260508161842 67 248 2.0 6.0 0.00 0.00 0.00 62 1018.9
20260508161339 67 181 0.0 8.0 0.00 0.00 0.00 63 1019.1
20260508160838 67 0 0.0 8.0 0.00 0.00 0.00 63 1019.2
20260508160340 67 84 2.0 8.0 0.00 0.00 0.00 62 1019.1
20260508155839 67 63 4.0 7.0 0.00 0.00 0.00 62 1019.2
20260508155342 66 225 0.0 7.0 0.00 0.00 0.00 63 1019.3
20260508154840 66 249 4.0 7.0 0.00 0.00 0.00 64 1019.4
20260508154341 66 269 3.0 6.0 0.00 0.00 0.00 63 1019.5
20260508153840 65 238 1.0 7.0 0.00 0.00 0.00 64 1019.6
20260508153337 65 255 1.0 7.0 0.00 0.00 0.00 63 1019.5
20260508152841 65 203 1.0 4.0 0.00 0.00 0.00 66 1019.5
20260508152340 64 232 2.0 5.0 0.00 0.00 0.00 66 1019.4
20260508151838 64 244 3.0 5.0 0.00 0.00 0.00 65 1019.6
20260508151339 64 255 0.0 5.0 0.00 0.00 0.00 65 1019.7
20260508150838 64 295 2.0 4.0 0.00 0.00 0.00 68 1019.5
20260508150338 64 248 3.0 5.0 0.00 0.00 0.00 68 1019.5
20260508145840 64 224 1.0 5.0 0.00 0.00 0.00 66 1019.7
20260508145336 64 163 1.0 5.0 0.00 0.00 0.00 66 1019.8
20260508144840 64 226 1.0 5.0 0.00 0.00 0.00 66 1019.7
20260508144338 63 292 0.0 5.0 0.00 0.00 0.00 69 1019.5
20260508143842 63 252 3.0 6.0 0.00 0.00 0.00 68 1019.6
20260508143336 62 250 1.0 8.0 0.00 0.00 0.00 70 1019.6
20260508142840 62 72 3.0 8.0 0.00 0.00 0.00 70 1019.4
20260508142338 62 243 1.0 5.0 0.00 0.00 0.00 72 1019.6
20260508141842 61 229 2.0 5.0 0.00 0.00 0.00 72 1019.4
20260508141338 61 247 4.0 5.0 0.00 0.00 0.00 73 1019.5
20260508140842 61 53 2.0 5.0 0.00 0.00 0.00 74 1019.5
20260508140338 60 236 2.0 6.0 0.00 0.00 0.00 74 1019.5
20260508135841 60 257 3.0 7.0 0.00 0.00 0.00 74 1019.6
20260508135339 60 278 1.0 7.0 0.00 0.00 0.00 75 1019.6
20260508134839 60 269 4.0 5.0 0.00 0.00 0.00 77 1019.6
20260508134335 60 231 2.0 2.0 0.00 0.00 0.00 80 1019.7
20260508133839 59 0 0.0 3.0 0.00 0.00 0.00 80 1019.7
20260508133342 59 0 0.0 5.0 0.00 0.00 0.00 80 1019.9
20260508132839 59 0 0.0 5.0 0.00 0.00 0.00 80 1019.8
20260508132336 59 0 0.0 2.0 0.00 0.00 0.00 82 1019.7
20260508131838 59 0 0.0 1.0 0.00 0.00 0.00 82 1019.7
20260508131340 58 0 0.0 1.0 0.00 0.00 0.00 83 1019.6
20260508130839 58 0 0.0 1.0 0.00 0.00 0.00 83 1019.5
20260508130343 58 0 0.0 1.0 0.00 0.00 0.00 83 1019.5
20260508125838 58 0 0.0 1.0 0.00 0.00 0.00 84 1019.4
20260508125339 58 234 0.0 1.0 0.00 0.00 0.00 82 1019.3
20260508124844 58 0 0.0 1.0 0.00 0.00 0.00 83 1019.6
20260508124338 58 0 0.0 1.0 0.00 0.00 0.00 83 1019.4
20260508123836 58 235 0.0 1.0 0.00 0.00 0.00 82 1019.4
20260508123342 58 0 0.0 1.0 0.00 0.00 0.00 82 1019.3
20260508122842 57 0 0.0 2.0 0.00 0.00 0.00 82 1019.3
20260508122342 58 0 0.0 2.0 0.00 0.00 0.00 81 1019.3
20260508121840 58 213 1.0 2.0 0.00 0.00 0.00 82 1019.2
20260508121341 57 212 1.0 1.0 0.00 0.00 0.00 82 1019.2
20260508120837 57 0 0.0 1.0 0.00 0.00 0.00 81 1019.0
20260508120345 57 0 0.0 1.0 0.00 0.00 0.00 83 1019.0
20260508115843 57 0 0.0 0.0 0.00 0.00 0.00 84 1018.7
20260508115335 55 0 0.0 1.0 0.00 0.00 0.00 87 1018.8
20260508114838 54 0 0.0 1.0 0.00 0.00 0.00 88 1018.3
20260508114335 54 206 0.0 1.0 0.00 0.00 0.00 88 1018.3
20260508113837 54 0 0.0 0.0 0.00 0.00 0.00 90 1018.1
20260508113341 52 0 0.0 1.0 0.00 0.00 0.00 92 1018.0
20260508112842 51 0 0.0 1.0 0.00 0.00 0.00 92 1018.0
20260508112341 51 0 0.0 1.0 0.00 0.00 0.00 93 1017.9
20260508111839 50 0 0.0 1.0 0.00 0.00 0.00 94 1017.9
20260508111339 50 0 0.0 1.0 0.00 0.00 0.00 94 1017.7
20260508110842 50 0 0.0 1.0 0.00 0.00 0.00 94 1017.7
20260508110349 50 0 0.0 1.0 0.00 0.00 0.00 94 1017.5
20260508105848 50 0 0.0 1.0 0.00 0.00 0.00 94 1017.6
20260508105347 50 0 0.0 0.0 0.00 0.00 0.00 94 1017.5
20260508104846 49 0 0.0 0.0 0.00 0.00 0.00 94 1017.4
20260508104346 49 0 0.0 0.0 0.00 0.00 0.00 94 1017.3
20260508103848 50 0 0.0 0.0 0.00 0.00 0.00 93 1017.1
20260508103344 50 0 0.0 0.0 0.00 0.00 0.00 94 1017.1
20260508102848 50 0 0.0 0.0 0.00 0.00 0.00 94 1017.2
20260508102347 50 0 0.0 0.0 0.00 0.00 0.00 94 1016.9
20260508101842 50 0 0.0 0.0 0.00 0.00 0.00 94 1017.0
20260508101344 50 0 0.0 0.0 0.00 0.00 0.00 94 1016.8
20260508100842 50 0 0.0 0.0 0.00 0.00 0.00 93 1016.8
20260508100344 50 0 0.0 0.0 0.00 0.00 0.00 93 1016.8
20260508095844 50 0 0.0 0.0 0.00 0.00 0.00 94 1016.7
20260508095342 51 0 0.0 0.0 0.00 0.00 0.00 94 1016.6
20260508094844 51 0 0.0 0.0 0.00 0.00 0.00 94 1016.7
20260508094342 51 0 0.0 0.0 0.00 0.00 0.00 94 1016.6
20260508093843 51 0 0.0 0.0 0.00 0.00 0.00 94 1016.6
20260508093342 51 0 0.0 0.0 0.00 0.00 0.00 94 1016.4
20260508092843 51 0 0.0 0.0 0.00 0.00 0.00 94 1016.5
20260508092341 51 0 0.0 0.0 0.00 0.00 0.00 94 1016.4
20260508091840 51 0 0.0 0.0 0.00 0.00 0.00 94 1016.5
20260508091341 51 0 0.0 0.0 0.00 0.00 0.00 94 1016.3
20260508090840 51 0 0.0 0.0 0.00 0.00 0.00 94 1016.3
20260508090342 51 0 0.0 0.0 0.00 0.00 0.00 94 1016.3
20260508085843 51 0 0.0 0.0 0.00 0.00 0.00 94 1016.3
20260508085341 52 0 0.0 0.0 0.00 0.00 0.00 93 1016.4
20260508084840 52 0 0.0 0.0 0.00 0.00 0.00 94 1016.3
20260508084343 52 0 0.0 0.0 0.00 0.00 0.00 94 1016.3
20260508083840 52 0 0.0 0.0 0.00 0.00 0.00 94 1016.2
20260508083340 52 0 0.0 0.0 0.00 0.00 0.00 94 1016.1
20260508082840 52 0 0.0 0.0 0.00 0.00 0.00 94 1016.0
20260508082339 52 0 0.0 0.0 0.00 0.00 0.00 94 1016.0
20260508081841 52 0 0.0 0.0 0.00 0.00 0.00 94 1016.0
20260508081341 52 0 0.0 0.0 0.00 0.00 0.00 94 1015.7
20260508080838 52 0 0.0 0.0 0.00 0.00 0.00 93 1015.8
20260508080340 52 0 0.0 0.0 0.00 0.00 0.00 93 1015.8
20260508075839 53 0 0.0 0.0 0.00 0.00 0.00 93 1015.9
20260508075340 53 0 0.0 0.0 0.00 0.00 0.00 93 1016.3
20260508074839 53 0 0.0 0.0 0.00 0.00 0.00 93 1016.0
20260508074337 53 0 0.0 0.0 0.00 0.00 0.00 93 1016.0
20260508073837 53 0 0.0 0.0 0.00 0.00 0.00 93 1015.9
20260508073339 53 0 0.0 0.0 0.00 0.00 0.00 93 1015.9
20260508072837 53 0 0.0 0.0 0.00 0.00 0.00 93 1015.9
20260508072338 54 0 0.0 0.0 0.00 0.00 0.00 93 1016.0
20260508071837 54 0 0.0 0.0 0.00 0.00 0.00 93 1016.2
20260508071338 54 0 0.0 0.0 0.00 0.00 0.00 93 1016.2
20260508070838 54 0 0.0 0.0 0.00 0.00 0.00 93 1016.1
20260508070337 54 0 0.0 0.0 0.00 0.00 0.00 93 1016.1
20260508065838 54 0 0.0 0.0 0.00 0.00 0.00 93 1016.0
20260508065337 54 0 0.0 0.0 0.00 0.00 0.00 92 1016.0
20260508064836 54 0 0.0 0.0 0.00 0.00 0.00 93 1016.1
20260508064334 54 0 0.0 0.0 0.00 0.00 0.00 93 1016.2
20260508063834 54 0 0.0 0.0 0.00 0.00 0.00 92 1016.1
20260508063336 54 0 0.0 0.0 0.00 0.00 0.00 92 1016.2
20260508062835 54 0 0.0 0.0 0.00 0.00 0.00 92 1016.2
20260508062336 54 0 0.0 0.0 0.00 0.00 0.00 92 1016.3
20260508061735 54 0 0.0 0.0 0.00 0.00 0.00 92 1016.4
20260508061233 54 0 0.0 0.0 0.00 0.00 0.00 91 1016.3
20260508060735 54 0 0.0 0.0 0.00 0.00 0.00 91 1016.4
20260508060235 54 0 0.0 0.0 0.00 0.00 0.00 91 1016.3
20260508055834 55 0 0.0 0.0 0.00 0.00 0.00 91 1016.5
20260508055433 55 0 0.0 0.0 0.00 0.00 0.00 91 1016.4
20260508054843 55 0 0.0 0.0 0.00 0.00 0.00 91 1016.5
20260508054434 55 0 0.0 0.0 0.00 0.00 0.00 91 1016.5
20260508053840 55 0 0.0 0.0 0.00 0.00 0.00 90 1016.5
20260508053337 55 0 0.0 0.0 0.00 0.00 0.00 90 1016.6
20260508052837 55 0 0.0 0.0 0.00 0.00 0.00 90 1016.4
20260508052337 55 0 0.0 0.0 0.00 0.00 0.00 90 1016.6
20260508051843 55 0 0.0 0.0 0.00 0.00 0.00 90 1016.5
20260508051341 55 0 0.0 0.0 0.00 0.00 0.00 90 1016.7
20260508050840 55 0 0.0 0.0 0.00 0.00 0.00 90 1016.5
20260508050336 55 0 0.0 0.0 0.00 0.00 0.00 90 1016.7
20260508045934 56 0 0.0 0.0 0.00 0.00 0.00 89 1016.7
20260508045336 56 0 0.0 0.0 0.00 0.00 0.00 89 1016.7
20260508044841 56 0 0.0 0.0 0.00 0.00 0.00 89 1016.5
20260508044338 56 0 0.0 0.0 0.00 0.00 0.00 89 1016.5
20260508043834 56 0 0.0 0.0 0.00 0.00 0.00 89 1016.3
20260508043334 56 0 0.0 0.0 0.00 0.00 0.00 88 1016.3
20260508042837 56 0 0.0 0.0 0.00 0.00 0.00 88 1016.4
20260508042338 57 0 0.0 0.0 0.00 0.00 0.00 88 1016.3
20260508041836 57 0 0.0 0.0 0.00 0.00 0.00 88 1016.4
20260508041339 57 0 0.0 0.0 0.00 0.00 0.00 88 1016.4
20260508040843 57 0 0.0 0.0 0.00 0.00 0.00 88 1016.2
20260508040431 57 0 0.0 0.0 0.00 0.00 0.00 88 1016.2
20260508035837 57 0 0.0 0.0 0.00 0.00 1.09 87 1016.3
20260508035342 57 0 0.0 0.0 0.00 0.00 1.09 87 1016.3
20260508034838 57 0 0.0 0.0 0.00 0.00 1.09 87 1016.4
20260508034338 57 0 0.0 0.0 0.00 0.00 1.09 86 1016.3
20260508033839 57 0 0.0 0.0 0.00 0.00 1.09 86 1016.3
20260508033336 57 0 0.0 0.0 0.00 0.00 1.09 86 1016.3
20260508032835 57 0 0.0 0.0 0.00 0.00 1.09 87 1016.1
20260508032337 58 0 0.0 0.0 0.00 0.00 1.09 86 1016.3
20260508031837 58 0 0.0 0.0 0.00 0.00 1.09 86 1016.3
20260508031338 58 0 0.0 0.0 0.00 0.00 1.09 86 1016.3
20260508030834 58 0 0.0 0.0 0.00 0.00 1.09 85 1016.2
20260508030341 58 0 0.0 0.0 0.00 0.00 1.09 85 1016.2
20260508025837 58 0 0.0 0.0 0.00 0.00 1.09 84 1016.0
20260508025342 59 0 0.0 0.0 0.00 0.00 1.09 85 1016.3
20260508024836 59 0 0.0 0.0 0.00 0.00 1.09 84 1016.1
20260508024340 59 0 0.0 0.0 0.00 0.00 1.09 84 1016.0
20260508023935 59 0 0.0 1.0 0.00 0.00 1.09 84 1016.1
20260508023440 59 0 0.0 1.0 0.00 0.00 1.09 84 1016.1
20260508022939 59 0 0.0 1.0 0.00 0.00 1.09 84 1016.0
20260508022441 59 0 0.0 0.0 0.00 0.00 1.09 84 1016.0
20260508021941 59 0 0.0 0.0 0.00 0.00 1.09 84 1016.1
20260508021440 59 0 0.0 0.0 0.00 0.00 1.09 84 1016.0
20260508020944 59 0 0.0 0.0 0.00 0.00 1.09 84 1015.8
20260508020435 59 0 0.0 0.0 0.00 0.00 1.09 84 1015.8
20260508015939 60 0 0.0 0.0 0.00 0.00 1.09 83 1015.8
20260508015438 60 0 0.0 0.0 0.00 0.00 1.09 83 1015.8
20260508014939 60 0 0.0 0.0 0.00 0.00 1.09 82 1015.7
20260508014439 60 0 0.0 1.0 0.00 0.00 1.09 82 1015.7
20260508013941 61 0 0.0 1.0 0.00 0.00 1.09 82 1015.6
20260508013441 61 0 0.0 1.0 0.00 0.00 1.09 82 1015.6
20260508012942 61 0 0.0 1.0 0.00 0.00 1.09 81 1015.6
20260508012437 61 0 0.0 0.0 0.00 0.00 1.09 82 1015.6
20260508011939 61 0 0.0 0.0 0.00 0.00 1.09 81 1015.5
20260508011435 61 0 0.0 0.0 0.00 0.00 1.09 81 1015.6
20260508010938 61 0 0.0 0.0 0.00 0.00 1.09 80 1015.5
20260508010441 62 0 0.0 0.0 0.00 0.00 1.09 80 1015.5
20260508005939 62 0 0.0 0.0 0.00 0.00 1.09 80 1015.5
20260508005442 62 0 0.0 0.0 0.00 0.00 1.09 79 1015.3
20260508004941 62 0 0.0 1.0 0.00 0.00 1.09 79 1015.3
20260508004437 62 0 0.0 1.0 0.00 0.00 1.09 79 1015.1
20260508003940 62 0 0.0 2.0 0.00 0.00 1.09 78 1015.2
20260508003437 63 0 0.0 2.0 0.00 0.00 1.09 78 1015.0
20260508002943 63 0 0.0 0.0 0.00 0.00 1.09 78 1015.2
20260508002441 63 0 0.0 0.0 0.00 0.00 1.09 78 1015.0